Location: Feudal
(51.8839°N, 107.6105°W)
Time: 05:30:18
(UTC+00:00)

Envisat - Pass Details

Date: 23 January 2022
Orbit: 764 x 765 km, 98.2° (Epoch: 25 May)

Event Time Altitude Azimuth Distance (km) Brightness Sun altitude
Rises 12:47:11 0° 11° (NNE) 3,245 6.3 -20.5°
Reaches altitude 10° 12:49:32 10° 8° (N) 2,314 5.5 -20.1°
Maximum altitude 12:54:30 56° 291° (WNW) 909 3.0 -19.4°
Drops below altitude 10° 12:59:27 10° 214° (SW) 2,299 5.2 -18.6°
Sets 13:01:47 0° 210° (SSW) 3,221 6.0 -18.2°
